Time,TemperatureF,DewpointF,PressureIn,WindDirection,WindDirectionDegrees,WindSpeedMPH,WindSpeedGustMPH,Humidity,HourlyPrecipIn,Conditions,Clouds,dailyrainin,SoftwareType,DateUTC
2013-02-04 00:01:00,39.9,38.7,30.11,NE,37,0.0,1.0,95,0.00,,,0.00,meteohub,2013-02-04 08:01:00,
2013-02-04 00:06:00,39.9,38.7,30.11,NE,36,0.0,1.0,95,0.00,,,0.00,meteohub,2013-02-04 08:06:00,
2013-02-04 00:11:00,39.9,38.7,30.11,NE,36,0.0,1.0,95,0.00,,,0.00,meteohub,2013-02-04 08:11:00,
2013-02-04 00:16:00,39.6,38.3,30.11,NNE,32,1.0,1.0,95,0.00,,,0.00,meteohub,2013-02-04 08:16:00,
2013-02-04 00:22:00,39.6,38.3,30.11,NNE,32,0.0,1.0,95,0.00,,,0.00,meteohub,2013-02-04 08:22:00,
2013-02-04 00:27:00,39.4,38.1,30.11,NE,34,0.0,1.0,95,0.00,,,0.00,meteohub,2013-02-04 08:27:00,
2013-02-04 00:32:00,39.4,38.1,30.11,NNE,33,1.0,1.0,95,0.00,,,0.00,meteohub,2013-02-04 08:32:00,
2013-02-04 00:37:00,39.0,37.8,30.10,NE,34,0.0,1.0,95,0.00,,,0.00,meteohub,2013-02-04 08:37:00,
2013-02-04 00:42:00,38.7,37.4,30.10,NE,34,0.0,1.0,95,0.00,,,0.00,meteohub,2013-02-04 08:42:00,
2013-02-04 00:47:00,38.5,37.2,30.10,NE,34,0.0,0.0,95,0.00,,,0.00,meteohub,2013-02-04 08:47:00,
2013-02-04 00:52:00,38.7,37.4,30.11,NNE,32,0.0,1.0,95,0.00,,,0.00,meteohub,2013-02-04 08:52:00,
2013-02-04 00:57:00,38.7,37.4,30.11,ESE,109,1.0,1.0,95,0.00,,,0.00,meteohub,2013-02-04 08:57:00,
2013-02-04 01:02:00,38.7,37.4,30.11,ESE,123,0.0,1.0,95,0.00,,,0.00,meteohub,2013-02-04 09:02:00,
2013-02-04 01:07:00,38.5,37.2,30.11,ESE,123,0.0,1.0,95,0.00,,,0.00,meteohub,2013-02-04 09:07:00,
2013-02-04 01:12:00,38.7,37.4,30.11,SE,124,0.0,1.0,95,0.00,,,0.00,meteohub,2013-02-04 09:12:00,
2013-02-04 01:17:00,38.5,37.2,30.11,WNW,290,1.0,1.0,95,0.00,,,0.00,meteohub,2013-02-04 09:17:00,
2013-02-04 01:22:00,38.5,37.2,30.11,WNW,284,0.0,2.0,95,0.00,,,0.00,meteohub,2013-02-04 09:22:00,
2013-02-04 01:27:00,38.5,37.2,30.11,WNW,284,1.0,2.0,95,0.00,,,0.00,meteohub,2013-02-04 09:27:00,
2013-02-04 01:32:00,38.7,37.4,30.11,WNW,283,0.0,1.0,95,0.00,,,0.00,meteohub,2013-02-04 09:32:00,
2013-02-04 01:37:00,38.5,37.2,30.11,WNW,283,0.0,1.0,95,0.00,,,0.00,meteohub,2013-02-04 09:37:00,
2013-02-04 01:42:00,38.3,37.0,30.11,WNW,283,0.0,1.0,95,0.00,,,0.00,meteohub,2013-02-04 09:42:00,
2013-02-04 01:47:00,38.5,37.2,30.11,WNW,283,0.0,0.0,95,0.00,,,0.00,meteohub,2013-02-04 09:47:00,
2013-02-04 01:52:00,38.1,36.9,30.11,WNW,283,1.0,1.0,95,0.00,,,0.00,meteohub,2013-02-04 09:52:00,
2013-02-04 01:57:00,38.3,37.0,30.11,WNW,283,0.0,1.0,95,0.00,,,0.00,meteohub,2013-02-04 09:57:00,
2013-02-04 02:02:00,38.1,37.0,30.11,WNW,283,0.0,1.0,96,0.00,,,0.00,meteohub,2013-02-04 10:02:00,
2013-02-04 02:07:00,38.1,37.0,30.11,WNW,283,0.0,1.0,96,0.00,,,0.00,meteohub,2013-02-04 10:07:00,
2013-02-04 02:12:00,37.9,36.7,30.11,WNW,283,0.0,0.0,95,0.00,,,0.00,meteohub,2013-02-04 10:12:00,
2013-02-04 02:17:00,37.9,36.9,30.11,WNW,283,0.0,1.0,96,0.01,,,0.01,meteohub,2013-02-04 10:17:00,
2013-02-04 02:22:00,38.1,37.0,30.11,WNW,283,0.0,1.0,96,0.01,,,0.01,meteohub,2013-02-04 10:22:00,
2013-02-04 02:27:00,38.1,37.0,30.11,WNW,283,0.0,1.0,96,0.01,,,0.01,meteohub,2013-02-04 10:27:00,
2013-02-04 02:32:00,38.3,37.2,30.11,WNW,283,1.0,1.0,96,0.01,,,0.01,meteohub,2013-02-04 10:32:00,
2013-02-04 02:38:00,38.5,37.4,30.11,SE,142,0.0,1.0,96,0.01,,,0.01,meteohub,2013-02-04 10:38:00,
2013-02-04 02:43:00,38.5,37.4,30.11,SE,143,0.0,1.0,96,0.01,,,0.01,meteohub,2013-02-04 10:43:00,
2013-02-04 02:48:00,38.3,37.2,30.11,SE,145,0.0,1.0,96,0.01,,,0.01,meteohub,2013-02-04 10:48:00,
2013-02-04 02:53:00,38.1,37.0,30.11,SE,145,0.0,1.0,96,0.01,,,0.01,meteohub,2013-02-04 10:53:00,
2013-02-04 02:58:00,38.1,37.0,30.11,SE,145,0.0,1.0,96,0.01,,,0.01,meteohub,2013-02-04 10:58:00,
2013-02-04 03:03:00,37.9,36.9,30.11,SE,145,0.0,1.0,96,0.01,,,0.01,meteohub,2013-02-04 11:03:00,
2013-02-04 03:08:00,38.1,37.0,30.10,SE,145,0.0,0.0,96,0.00,,,0.01,meteohub,2013-02-04 11:08:00,
2013-02-04 03:13:00,37.9,36.9,30.10,SE,145,0.0,1.0,96,0.00,,,0.01,meteohub,2013-02-04 11:13:00,
2013-02-04 03:18:00,37.9,36.9,30.10,SE,146,0.0,1.0,96,0.00,,,0.01,meteohub,2013-02-04 11:18:00,
2013-02-04 03:23:00,37.9,36.9,30.10,South,169,1.0,1.0,96,0.00,,,0.01,meteohub,2013-02-04 11:23:00,
2013-02-04 03:28:00,37.9,36.9,30.10,South,169,0.0,1.0,96,0.00,,,0.01,meteohub,2013-02-04 11:28:00,
2013-02-04 03:33:00,37.9,36.9,30.10,South,169,0.0,1.0,96,0.00,,,0.01,meteohub,2013-02-04 11:33:00,
2013-02-04 03:38:00,37.9,36.9,30.09,South,169,0.0,1.0,96,0.00,,,0.01,meteohub,2013-02-04 11:38:00,
2013-02-04 03:43:00,37.8,36.7,30.09,South,170,0.0,1.0,96,0.00,,,0.01,meteohub,2013-02-04 11:43:00,
2013-02-04 03:48:00,37.6,36.5,30.09,South,169,0.0,1.0,96,0.00,,,0.01,meteohub,2013-02-04 11:48:00,
2013-02-04 03:53:00,37.2,36.0,30.10,South,169,0.0,0.0,95,0.00,,,0.01,meteohub,2013-02-04 11:53:00,
2013-02-04 03:58:00,37.2,36.1,30.10,South,169,0.0,0.0,96,0.00,,,0.01,meteohub,2013-02-04 11:58:00,
2013-02-04 04:03:00,37.2,36.1,30.10,South,169,0.0,0.0,96,0.00,,,0.01,meteohub,2013-02-04 12:03:00,
2013-02-04 04:08:00,37.2,36.1,30.09,SSE,168,0.0,0.0,96,0.00,,,0.01,meteohub,2013-02-04 12:08:00,
2013-02-04 04:13:00,37.0,36.0,30.09,SSE,168,0.0,1.0,96,0.00,,,0.01,meteohub,2013-02-04 12:13:00,
2013-02-04 04:18:00,36.9,35.8,30.09,SSE,168,0.0,1.0,96,0.00,,,0.01,meteohub,2013-02-04 12:18:00,
2013-02-04 04:23:00,36.9,35.8,30.10,SSE,168,0.0,1.0,96,0.00,,,0.01,meteohub,2013-02-04 12:23:00,
2013-02-04 04:28:00,36.7,35.6,30.10,SSE,168,0.0,0.0,96,0.00,,,0.01,meteohub,2013-02-04 12:28:00,
2013-02-04 04:33:00,36.5,35.4,30.10,SSE,168,0.0,0.0,96,0.00,,,0.01,meteohub,2013-02-04 12:33:00,
2013-02-04 04:38:00,36.3,35.2,30.10,SSE,168,0.0,0.0,96,0.00,,,0.01,meteohub,2013-02-04 12:38:00,
2013-02-04 04:43:00,36.3,35.2,30.10,SSE,168,0.0,0.0,96,0.00,,,0.01,meteohub,2013-02-04 12:43:00,
2013-02-04 04:48:00,36.7,35.6,30.10,SSE,168,0.0,0.0,96,0.00,,,0.01,meteohub,2013-02-04 12:48:00,
2013-02-04 04:54:00,36.9,35.8,30.11,SSE,168,0.0,0.0,96,0.00,,,0.01,meteohub,2013-02-04 12:54:00,
2013-02-04 04:59:00,37.0,36.0,30.11,SSE,148,1.0,0.0,96,0.00,,,0.01,meteohub,2013-02-04 12:59:00,
2013-02-04 05:04:00,37.2,36.1,30.11,ESE,109,0.0,1.0,96,0.00,,,0.01,meteohub,2013-02-04 13:04:00,
2013-02-04 05:09:00,37.2,36.1,30.10,ESE,109,0.0,1.0,96,0.00,,,0.01,meteohub,2013-02-04 13:09:00,
2013-02-04 05:14:00,37.6,36.5,30.10,ESE,109,0.0,1.0,96,0.00,,,0.01,meteohub,2013-02-04 13:14:00,
2013-02-04 05:19:00,37.6,36.5,30.10,ESE,109,0.0,1.0,96,0.00,,,0.01,meteohub,2013-02-04 13:19:00,
2013-02-04 05:24:00,37.6,36.5,30.11,ESE,109,0.0,1.0,96,0.00,,,0.01,meteohub,2013-02-04 13:24:00,
2013-02-04 05:29:00,37.6,36.5,30.11,ESE,109,0.0,1.0,96,0.00,,,0.01,meteohub,2013-02-04 13:29:00,
2013-02-04 05:34:00,37.6,36.5,30.11,ESE,109,0.0,0.0,96,0.00,,,0.01,meteohub,2013-02-04 13:34:00,
2013-02-04 05:39:00,37.4,36.3,30.10,ESE,109,0.0,0.0,96,0.00,,,0.01,meteohub,2013-02-04 13:39:00,
2013-02-04 05:44:00,37.2,36.1,30.10,ESE,109,0.0,0.0,96,0.00,,,0.01,meteohub,2013-02-04 13:44:00,
2013-02-04 05:49:00,37.0,36.0,30.10,ESE,109,0.0,0.0,96,0.00,,,0.01,meteohub,2013-02-04 13:49:00,
2013-02-04 05:54:00,37.0,36.0,30.10,ESE,109,0.0,0.0,96,0.00,,,0.01,meteohub,2013-02-04 13:54:00,
2013-02-04 05:59:00,37.0,36.0,30.10,ESE,109,0.0,0.0,96,0.00,,,0.01,meteohub,2013-02-04 13:59:00,
2013-02-04 06:04:00,37.0,36.0,30.10,ESE,109,0.0,0.0,96,0.00,,,0.01,meteohub,2013-02-04 14:04:00,
2013-02-04 06:09:00,37.0,36.0,30.10,NNE,17,1.0,1.0,96,0.00,,,0.01,meteohub,2013-02-04 14:09:00,
2013-02-04 06:14:00,37.0,36.3,30.10,NNE,17,0.0,1.0,97,0.00,,,0.01,meteohub,2013-02-04 14:14:00,
2013-02-04 06:19:00,37.0,36.0,30.10,WNW,286,1.0,2.0,96,0.00,,,0.01,meteohub,2013-02-04 14:19:00,
2013-02-04 06:24:00,36.9,35.8,30.10,WNW,286,0.0,2.0,96,0.00,,,0.01,meteohub,2013-02-04 14:24:00,
2013-02-04 06:29:00,36.9,35.8,30.10,WNW,286,0.0,2.0,96,0.00,,,0.01,meteohub,2013-02-04 14:29:00,
2013-02-04 06:34:00,36.7,35.6,30.10,WNW,285,0.0,1.0,96,0.00,,,0.01,meteohub,2013-02-04 14:34:00,
2013-02-04 06:39:00,36.7,35.6,30.12,WNW,285,0.0,1.0,96,0.00,,,0.01,meteohub,2013-02-04 14:39:00,
2013-02-04 06:44:00,36.7,36.0,30.12,WNW,286,1.0,1.0,97,0.00,,,0.01,meteohub,2013-02-04 14:44:00,
2013-02-04 06:49:00,36.5,35.8,30.12,SE,144,0.0,2.0,97,0.00,,,0.01,meteohub,2013-02-04 14:49:00,
2013-02-04 06:54:00,36.3,35.6,30.12,SSE,153,2.0,2.0,97,0.00,,,0.01,meteohub,2013-02-04 14:54:00,
2013-02-04 06:59:00,36.3,35.6,30.12,ESE,122,0.0,2.0,97,0.00,,,0.01,meteohub,2013-02-04 14:59:00,
2013-02-04 07:04:00,36.5,35.8,30.12,ESE,122,0.0,2.0,97,0.00,,,0.01,meteohub,2013-02-04 15:04:00,
2013-02-04 07:09:00,36.7,36.0,30.13,ENE,76,0.0,2.0,97,0.00,,,0.01,meteohub,2013-02-04 15:09:00,
2013-02-04 07:14:00,36.9,36.1,30.13,ENE,75,0.0,2.0,97,0.00,,,0.01,meteohub,2013-02-04 15:14:00,
2013-02-04 07:19:00,36.9,36.1,30.13,ENE,75,0.0,2.0,97,0.00,,,0.01,meteohub,2013-02-04 15:19:00,
2013-02-04 07:25:00,36.9,36.1,30.13,ENE,75,0.0,1.0,97,0.00,,,0.01,meteohub,2013-02-04 15:25:00,
2013-02-04 07:30:00,36.9,36.1,30.13,ENE,75,0.0,1.0,97,0.00,,,0.01,meteohub,2013-02-04 15:30:00,
2013-02-04 07:35:00,37.0,36.3,30.13,ENE,75,0.0,1.0,97,0.00,,,0.01,meteohub,2013-02-04 15:35:00,
2013-02-04 07:40:00,37.0,36.3,30.13,ENE,75,0.0,0.0,97,0.00,,,0.01,meteohub,2013-02-04 15:40:00,
2013-02-04 07:45:00,37.0,36.3,30.13,ENE,76,0.0,1.0,97,0.00,,,0.01,meteohub,2013-02-04 15:45:00,
2013-02-04 07:50:00,37.0,36.3,30.13,ENE,75,0.0,1.0,97,0.00,,,0.01,meteohub,2013-02-04 15:50:00,
2013-02-04 07:55:00,37.0,36.3,30.13,ENE,75,0.0,1.0,97,0.00,,,0.01,meteohub,2013-02-04 15:55:00,
2013-02-04 08:00:00,37.0,36.3,30.13,ENE,75,0.0,1.0,97,0.00,,,0.01,meteohub,2013-02-04 16:00:00,
2013-02-04 08:05:00,37.2,36.5,30.12,ENE,75,0.0,1.0,97,0.00,,,0.01,meteohub,2013-02-04 16:05:00,
2013-02-04 08:10:00,37.2,36.5,30.12,East,92,1.0,1.0,97,0.00,,,0.01,meteohub,2013-02-04 16:10:00,
2013-02-04 08:15:00,37.6,36.9,30.12,East,91,0.0,2.0,97,0.00,,,0.01,meteohub,2013-02-04 16:15:00,
2013-02-04 08:20:00,37.9,37.2,30.13,East,92,0.0,1.0,97,0.00,,,0.01,meteohub,2013-02-04 16:20:00,
2013-02-04 08:25:00,38.1,37.4,30.13,East,92,0.0,0.0,97,0.00,,,0.01,meteohub,2013-02-04 16:25:00,
2013-02-04 08:30:00,38.3,37.6,30.13,NW,322,1.0,0.0,97,0.00,,,0.01,meteohub,2013-02-04 16:30:00,
2013-02-04 08:35:00,38.1,37.4,30.13,West,268,2.0,2.0,97,0.00,,,0.01,meteohub,2013-02-04 16:35:00,
2013-02-04 08:40:00,37.9,37.2,30.13,West,261,1.0,2.0,97,0.00,,,0.01,meteohub,2013-02-04 16:40:00,
2013-02-04 08:45:00,37.9,37.2,30.13,West,261,0.0,2.0,97,0.00,,,0.01,meteohub,2013-02-04 16:45:00,
2013-02-04 08:50:00,38.1,37.4,30.13,SSW,209,0.0,2.0,97,0.00,,,0.01,meteohub,2013-02-04 16:50:00,
2013-02-04 08:55:00,38.5,37.8,30.13,SSW,207,1.0,2.0,97,0.00,,,0.01,meteohub,2013-02-04 16:55:00,
2013-02-04 09:00:00,38.5,37.8,30.13,SSW,208,0.0,2.0,97,0.00,,,0.01,meteohub,2013-02-04 17:00:00,
2013-02-04 09:05:00,38.7,37.9,30.14,SSE,156,0.0,1.0,97,0.00,,,0.01,meteohub,2013-02-04 17:05:00,
2013-02-04 09:10:00,38.7,37.9,30.14,SSE,148,1.0,1.0,97,0.00,,,0.01,meteohub,2013-02-04 17:10:00,
2013-02-04 09:15:00,38.8,38.1,30.14,SSW,209,0.0,1.0,97,0.00,,,0.01,meteohub,2013-02-04 17:15:00,
2013-02-04 09:20:00,39.4,38.7,30.13,East,97,1.0,1.0,97,0.00,,,0.01,meteohub,2013-02-04 17:20:00,
2013-02-04 09:25:00,39.6,38.8,30.13,West,280,2.0,2.0,97,0.00,,,0.01,meteohub,2013-02-04 17:25:00,
2013-02-04 09:30:00,39.6,38.8,30.13,WSW,249,1.0,2.0,97,0.00,,,0.01,meteohub,2013-02-04 17:30:00,
2013-02-04 09:35:00,39.7,39.0,30.15,West,279,1.0,2.0,97,0.00,,,0.01,meteohub,2013-02-04 17:35:00,
2013-02-04 09:40:00,39.7,39.0,30.15,West,281,0.0,2.0,97,0.00,,,0.01,meteohub,2013-02-04 17:40:00,
2013-02-04 09:45:00,40.3,39.6,30.15,West,280,0.0,1.0,97,0.00,,,0.01,meteohub,2013-02-04 17:45:00,
2013-02-04 09:50:00,40.6,39.9,30.14,WSW,250,1.0,2.0,97,0.00,,,0.01,meteohub,2013-02-04 17:50:00,
2013-02-04 09:56:00,40.6,39.9,30.14,WSW,250,0.0,2.0,97,0.00,,,0.01,meteohub,2013-02-04 17:56:00,
2013-02-04 10:01:00,40.6,39.9,30.14,ENE,57,1.0,2.0,97,0.00,,,0.01,meteohub,2013-02-04 18:01:00,
2013-02-04 10:06:00,41.2,40.5,30.14,SSE,168,0.0,2.0,97,0.00,,,0.01,meteohub,2013-02-04 18:06:00,
2013-02-04 10:11:00,41.2,40.5,30.14,East,82,0.0,2.0,97,0.00,,,0.01,meteohub,2013-02-04 18:11:00,
2013-02-04 10:16:00,41.5,40.8,30.14,SSE,168,0.0,2.0,97,0.00,,,0.01,meteohub,2013-02-04 18:16:00,
2013-02-04 10:21:00,42.1,41.4,30.14,SE,144,0.0,1.0,97,0.00,,,0.01,meteohub,2013-02-04 18:21:00,
2013-02-04 10:26:00,42.3,41.5,30.14,ESE,114,1.0,2.0,97,0.00,,,0.01,meteohub,2013-02-04 18:26:00,
2013-02-04 10:31:00,42.3,41.5,30.14,SW,226,0.0,2.0,97,0.00,,,0.01,meteohub,2013-02-04 18:31:00,
2013-02-04 10:36:00,42.3,41.5,30.13,SSW,207,0.0,2.0,97,0.00,,,0.01,meteohub,2013-02-04 18:36:00,
2013-02-04 10:41:00,42.4,41.7,30.13,ESE,109,1.0,2.0,97,0.00,,,0.01,meteohub,2013-02-04 18:41:00,
2013-02-04 10:46:00,43.0,42.3,30.13,East,80,1.0,2.0,97,0.00,,,0.01,meteohub,2013-02-04 18:46:00,
2013-02-04 10:51:00,43.3,42.6,30.13,SE,140,1.0,2.0,97,0.00,,,0.01,meteohub,2013-02-04 18:51:00,
2013-02-04 10:56:00,43.7,43.0,30.13,WSW,256,0.0,2.0,97,0.00,,,0.01,meteohub,2013-02-04 18:56:00,
2013-02-04 11:01:00,44.1,43.3,30.13,West,279,1.0,2.0,97,0.00,,,0.01,meteohub,2013-02-04 19:01:00,
2013-02-04 11:06:00,44.2,43.5,30.13,West,268,1.0,2.0,97,0.00,,,0.01,meteohub,2013-02-04 19:06:00,
2013-02-04 11:11:00,44.2,43.5,30.13,NW,315,2.0,2.0,97,0.00,,,0.01,meteohub,2013-02-04 19:11:00,
2013-02-04 11:16:00,44.4,43.7,30.13,SE,136,0.0,3.0,97,0.00,,,0.01,meteohub,2013-02-04 19:16:00,
2013-02-04 11:21:00,45.1,44.4,30.12,NW,317,1.0,3.0,97,0.00,,,0.01,meteohub,2013-02-04 19:21:00,
2013-02-04 11:26:00,45.5,44.8,30.12,SW,215,2.0,2.0,97,0.00,,,0.01,meteohub,2013-02-04 19:26:00,
2013-02-04 11:31:00,45.7,44.6,30.12,SSE,167,1.0,4.0,96,0.00,,,0.01,meteohub,2013-02-04 19:31:00,
2013-02-04 11:36:00,46.2,45.1,30.12,SSE,167,0.0,4.0,96,0.00,,,0.01,meteohub,2013-02-04 19:36:00,
2013-02-04 11:41:00,46.9,45.5,30.12,SW,217,1.0,3.0,95,0.00,,,0.01,meteohub,2013-02-04 19:41:00,
2013-02-04 11:47:00,47.5,45.5,30.12,SW,229,3.0,3.0,93,0.00,,,0.01,meteohub,2013-02-04 19:47:00,
2013-02-04 11:52:00,47.7,45.1,30.12,WSW,256,2.0,5.0,91,0.00,,,0.01,meteohub,2013-02-04 19:52:00,
2013-02-04 11:57:00,47.7,45.0,30.12,West,272,1.0,5.0,90,0.00,,,0.01,meteohub,2013-02-04 19:57:00,
2013-02-04 12:02:00,47.8,45.0,30.12,SSW,200,2.0,5.0,90,0.00,,,0.01,meteohub,2013-02-04 20:02:00,
2013-02-04 12:07:00,48.7,45.7,30.11,West,271,1.0,5.0,89,0.00,,,0.01,meteohub,2013-02-04 20:07:00,
2013-02-04 12:12:00,49.3,45.3,30.11,SE,140,2.0,3.0,86,0.00,,,0.01,meteohub,2013-02-04 20:12:00,
2013-02-04 12:17:00,49.5,45.1,30.11,ESE,104,2.0,3.0,85,0.00,,,0.01,meteohub,2013-02-04 20:17:00,
2013-02-04 12:22:00,49.8,45.5,30.10,SE,125,0.0,3.0,85,0.00,,,0.01,meteohub,2013-02-04 20:22:00,
2013-02-04 12:27:00,50.5,45.9,30.10,SE,136,1.0,3.0,84,0.00,,,0.01,meteohub,2013-02-04 20:27:00,
2013-02-04 12:32:00,51.3,46.0,30.10,East,98,2.0,3.0,82,0.00,,,0.01,meteohub,2013-02-04 20:32:00,
2013-02-04 12:37:00,52.0,46.0,30.09,SE,134,1.0,3.0,80,0.00,,,0.01,meteohub,2013-02-04 20:37:00,
2013-02-04 12:42:00,52.3,46.4,30.09,SW,231,1.0,4.0,80,0.00,,,0.01,meteohub,2013-02-04 20:42:00,
2013-02-04 12:47:00,53.2,46.6,30.09,SSE,149,1.0,4.0,78,0.00,,,0.01,meteohub,2013-02-04 20:47:00,
2013-02-04 12:52:00,53.2,46.2,30.09,SW,223,3.0,4.0,77,0.00,,,0.01,meteohub,2013-02-04 20:52:00,
2013-02-04 12:57:00,53.6,46.2,30.09,South,189,0.0,4.0,76,0.00,,,0.01,meteohub,2013-02-04 20:57:00,
2013-02-04 13:02:00,53.8,46.8,30.09,SSW,205,3.0,4.0,77,0.00,,,0.01,meteohub,2013-02-04 21:02:00,
2013-02-04 13:07:00,54.1,46.4,30.08,SSW,205,3.0,4.0,75,0.00,,,0.01,meteohub,2013-02-04 21:07:00,
2013-02-04 13:12:00,54.9,46.8,30.08,West,264,1.0,5.0,74,0.00,,,0.01,meteohub,2013-02-04 21:12:00,
2013-02-04 13:17:00,54.9,46.8,30.08,SW,214,2.0,5.0,74,0.00,,,0.01,meteohub,2013-02-04 21:17:00,
2013-02-04 13:22:00,55.2,46.8,30.07,South,178,1.0,4.0,73,0.00,,,0.01,meteohub,2013-02-04 21:22:00,
2013-02-04 13:27:00,55.8,47.3,30.07,SE,142,0.0,4.0,73,0.00,,,0.01,meteohub,2013-02-04 21:27:00,
2013-02-04 13:32:00,56.3,47.5,30.07,WNW,294,3.0,4.0,72,0.00,,,0.01,meteohub,2013-02-04 21:32:00,
2013-02-04 13:37:00,56.1,47.3,30.06,WNW,291,2.0,3.0,72,0.00,,,0.01,meteohub,2013-02-04 21:37:00,
2013-02-04 13:43:00,55.9,47.1,30.06,South,172,2.0,3.0,72,0.00,,,0.01,meteohub,2013-02-04 21:43:00,
2013-02-04 13:48:00,56.5,47.5,30.06,SW,218,3.0,4.0,72,0.00,,,0.01,meteohub,2013-02-04 21:48:00,
2013-02-04 13:53:00,56.7,47.3,30.05,West,267,2.0,4.0,71,0.00,,,0.01,meteohub,2013-02-04 21:53:00,
2013-02-04 13:58:00,56.5,47.5,30.05,West,267,1.0,6.0,72,0.00,,,0.01,meteohub,2013-02-04 21:58:00,
2013-02-04 14:03:00,56.8,47.8,30.05,SSW,192,3.0,6.0,72,0.00,,,0.01,meteohub,2013-02-04 22:03:00,
2013-02-04 14:08:00,56.8,47.8,30.05,SSW,211,1.0,5.0,72,0.00,,,0.01,meteohub,2013-02-04 22:08:00,
2013-02-04 14:13:00,56.7,47.7,30.05,South,173,3.0,7.0,72,0.00,,,0.01,meteohub,2013-02-04 22:13:00,
2013-02-04 14:18:00,56.7,48.0,30.05,West,279,2.0,7.0,73,0.00,,,0.01,meteohub,2013-02-04 22:18:00,
2013-02-04 14:23:00,56.7,48.0,30.04,South,183,5.0,6.0,73,0.00,,,0.01,meteohub,2013-02-04 22:23:00,
2013-02-04 14:28:00,56.7,48.4,30.04,West,269,2.0,8.0,74,0.00,,,0.01,meteohub,2013-02-04 22:28:00,
2013-02-04 14:33:00,56.5,48.4,30.04,South,184,6.0,8.0,74,0.00,,,0.01,meteohub,2013-02-04 22:33:00,
2013-02-04 14:38:00,56.3,48.6,30.04,SW,223,4.0,6.0,75,0.00,,,0.01,meteohub,2013-02-04 22:38:00,
2013-02-04 14:43:00,55.8,48.0,30.04,South,179,3.0,6.0,75,0.00,,,0.01,meteohub,2013-02-04 22:43:00,
2013-02-04 14:48:00,55.8,48.4,30.04,South,184,3.0,6.0,76,0.00,,,0.01,meteohub,2013-02-04 22:48:00,
2013-02-04 14:53:00,55.9,48.2,30.04,SSE,161,1.0,6.0,75,0.00,,,0.01,meteohub,2013-02-04 22:53:00,
2013-02-04 14:58:00,56.1,48.4,30.04,SSW,198,3.0,5.0,75,0.00,,,0.01,meteohub,2013-02-04 22:58:00,
2013-02-04 15:03:00,55.8,48.7,30.04,SW,214,1.0,5.0,77,0.00,,,0.01,meteohub,2013-02-04 23:03:00,
2013-02-04 15:08:00,55.6,48.6,30.04,SSW,213,2.0,5.0,77,0.00,,,0.01,meteohub,2013-02-04 23:08:00,
2013-02-04 15:13:00,55.2,48.6,30.04,WSW,240,1.0,5.0,78,0.00,,,0.01,meteohub,2013-02-04 23:13:00,
2013-02-04 15:18:00,54.9,48.6,30.04,SW,219,4.0,5.0,79,0.00,,,0.01,meteohub,2013-02-04 23:18:00,
2013-02-04 15:24:00,54.9,48.7,30.04,SW,226,1.0,6.0,80,0.00,,,0.01,meteohub,2013-02-04 23:24:00,
2013-02-04 15:29:00,55.0,48.9,30.04,WSW,242,1.0,6.0,80,0.00,,,0.01,meteohub,2013-02-04 23:29:00,
2013-02-04 15:34:00,55.0,48.6,30.04,SW,233,2.0,4.0,79,0.00,,,0.01,meteohub,2013-02-04 23:34:00,
2013-02-04 15:39:00,54.9,48.7,30.05,West,277,3.0,7.0,80,0.00,,,0.01,meteohub,2013-02-04 23:39:00,
2013-02-04 15:44:00,54.7,48.4,30.05,South,171,2.0,7.0,79,0.00,,,0.01,meteohub,2013-02-04 23:44:00,
2013-02-04 15:49:00,54.9,48.6,30.05,SSW,195,5.0,6.0,79,0.00,,,0.01,meteohub,2013-02-04 23:49:00,
2013-02-04 15:54:00,54.7,48.6,30.05,SSW,195,2.0,6.0,80,0.00,,,0.01,meteohub,2013-02-04 23:54:00,
2013-02-04 15:59:00,55.0,48.4,30.05,SSW,197,4.0,6.0,78,0.00,,,0.01,meteohub,2013-02-04 23:59:00,
2013-02-04 16:04:00,54.7,48.4,30.05,SW,216,4.0,6.0,79,0.00,,,0.01,meteohub,2013-02-05 00:04:00,
2013-02-04 16:09:00,54.3,48.0,30.05,SSW,210,1.0,6.0,79,0.00,,,0.01,meteohub,2013-02-05 00:09:00,
2013-02-04 16:14:00,54.3,48.0,30.05,SSW,202,2.0,6.0,79,0.00,,,0.01,meteohub,2013-02-05 00:14:00,
2013-02-04 16:19:00,53.8,47.8,30.05,SSW,204,1.0,6.0,80,0.00,,,0.01,meteohub,2013-02-05 00:19:00,
2013-02-04 16:24:00,53.4,47.5,30.04,SW,228,2.0,6.0,80,0.00,,,0.01,meteohub,2013-02-05 00:24:00,
2013-02-04 16:29:00,53.1,47.3,30.04,WSW,238,3.0,6.0,81,0.00,,,0.01,meteohub,2013-02-05 00:29:00,
2013-02-04 16:34:00,53.1,47.7,30.04,SW,217,4.0,5.0,82,0.00,,,0.01,meteohub,2013-02-05 00:34:00,
2013-02-04 16:39:00,53.1,47.3,30.04,SSW,202,3.0,5.0,81,0.00,,,0.01,meteohub,2013-02-05 00:39:00,
2013-02-04 16:44:00,53.1,47.3,30.04,South,181,0.0,4.0,81,0.00,,,0.01,meteohub,2013-02-05 00:44:00,
2013-02-04 16:49:00,53.1,47.3,30.04,SSW,207,0.0,4.0,81,0.00,,,0.01,meteohub,2013-02-05 00:49:00,
2013-02-04 16:54:00,52.9,47.3,30.04,SW,217,2.0,3.0,81,0.00,,,0.01,meteohub,2013-02-05 00:54:00,
2013-02-04 16:59:00,52.3,46.9,30.04,SW,221,0.0,3.0,82,0.00,,,0.01,meteohub,2013-02-05 00:59:00,
2013-02-04 17:04:00,52.0,46.9,30.04,SSW,200,2.0,3.0,83,0.00,,,0.01,meteohub,2013-02-05 01:04:00,
2013-02-04 17:09:00,51.6,46.9,30.04,South,177,0.0,3.0,84,0.00,,,0.01,meteohub,2013-02-05 01:09:00,
2013-02-04 17:14:00,51.4,46.8,30.04,South,176,0.0,3.0,84,0.00,,,0.01,meteohub,2013-02-05 01:14:00,
2013-02-04 17:19:00,51.3,46.9,30.02,South,184,1.0,2.0,85,0.00,,,0.01,meteohub,2013-02-05 01:19:00,
2013-02-04 17:25:00,51.1,46.8,30.02,South,188,1.0,1.0,85,0.00,,,0.01,meteohub,2013-02-05 01:25:00,
2013-02-04 17:30:00,50.5,46.6,30.02,WSW,238,1.0,1.0,86,0.00,,,0.01,meteohub,2013-02-05 01:30:00,
2013-02-04 17:35:00,50.4,46.6,30.02,SSW,209,0.0,3.0,87,0.00,,,0.01,meteohub,2013-02-05 01:35:00,
2013-02-04 17:40:00,49.8,46.0,30.02,SW,229,0.0,3.0,87,0.00,,,0.01,meteohub,2013-02-05 01:40:00,
2013-02-04 17:45:00,49.6,46.2,30.02,SW,227,1.0,2.0,88,0.00,,,0.01,meteohub,2013-02-05 01:45:00,
2013-02-04 17:50:00,49.3,45.9,30.02,SW,228,0.0,2.0,88,0.00,,,0.01,meteohub,2013-02-05 01:50:00,
2013-02-04 17:55:00,49.1,46.0,30.02,SW,227,0.0,1.0,89,0.00,,,0.01,meteohub,2013-02-05 01:55:00,
2013-02-04 18:00:00,48.7,45.7,30.02,SSW,194,0.0,1.0,89,0.00,,,0.01,meteohub,2013-02-05 02:00:00,
2013-02-04 18:05:00,48.4,45.3,30.03,SSW,200,0.0,2.0,89,0.00,,,0.01,meteohub,2013-02-05 02:05:00,
2013-02-04 18:10:00,48.0,45.1,30.03,SW,219,1.0,2.0,90,0.00,,,0.01,meteohub,2013-02-05 02:10:00,
2013-02-04 18:15:00,47.7,45.1,30.03,SW,234,0.0,2.0,91,0.00,,,0.01,meteohub,2013-02-05 02:15:00,
2013-02-04 18:20:00,47.5,45.0,30.04,SW,229,0.0,3.0,91,0.00,,,0.01,meteohub,2013-02-05 02:20:00,
2013-02-04 18:25:00,47.1,44.6,30.04,SW,233,0.0,3.0,91,0.00,,,0.01,meteohub,2013-02-05 02:25:00,
2013-02-04 18:31:00,46.9,44.4,30.04,SW,225,1.0,3.0,91,0.00,,,0.01,meteohub,2013-02-05 02:31:00,
2013-02-04 18:36:00,46.8,44.6,30.05,SSW,205,1.0,3.0,92,0.00,,,0.01,meteohub,2013-02-05 02:36:00,
2013-02-04 18:41:00,46.6,44.4,30.05,SSE,158,0.0,2.0,92,0.00,,,0.01,meteohub,2013-02-05 02:41:00,
2013-02-04 18:46:00,46.6,44.4,30.05,SSW,196,0.0,2.0,92,0.00,,,0.01,meteohub,2013-02-05 02:46:00,
2013-02-04 18:51:00,46.6,44.4,30.05,WSW,253,0.0,2.0,92,0.00,,,0.01,meteohub,2013-02-05 02:51:00,
2013-02-04 18:56:00,46.6,44.4,30.05,WSW,244,1.0,2.0,92,0.00,,,0.01,meteohub,2013-02-05 02:56:00,
2013-02-04 19:01:00,46.4,44.2,30.05,SW,233,1.0,3.0,92,0.00,,,0.01,meteohub,2013-02-05 03:01:00,
2013-02-04 19:06:00,46.4,44.4,30.05,SW,236,0.0,3.0,93,0.00,,,0.01,meteohub,2013-02-05 03:06:00,
2013-02-04 19:11:00,46.6,44.6,30.05,WNW,302,0.0,3.0,93,0.00,,,0.01,meteohub,2013-02-05 03:11:00,
2013-02-04 19:16:00,46.4,44.2,30.05,West,276,1.0,3.0,92,0.00,,,0.01,meteohub,2013-02-05 03:16:00,
2013-02-04 19:21:00,46.4,44.4,30.05,SW,223,0.0,2.0,93,0.00,,,0.01,meteohub,2013-02-05 03:21:00,
2013-02-04 19:26:00,46.4,44.4,30.05,WNW,289,1.0,2.0,93,0.00,,,0.01,meteohub,2013-02-05 03:26:00,
2013-02-04 19:31:00,46.4,44.4,30.05,WSW,257,1.0,3.0,93,0.00,,,0.01,meteohub,2013-02-05 03:31:00,
2013-02-04 19:36:00,46.4,44.4,30.04,SW,236,0.0,3.0,93,0.00,,,0.01,meteohub,2013-02-05 03:36:00,
2013-02-04 19:41:00,46.6,44.6,30.04,WNW,295,2.0,2.0,93,0.00,,,0.01,meteohub,2013-02-05 03:41:00,
2013-02-04 19:46:00,46.6,44.6,30.04,WSW,254,1.0,3.0,93,0.00,,,0.01,meteohub,2013-02-05 03:46:00,
2013-02-04 19:51:00,46.6,44.6,30.04,WSW,246,0.0,3.0,93,0.00,,,0.01,meteohub,2013-02-05 03:51:00,
2013-02-04 19:57:00,46.4,44.4,30.04,WSW,256,1.0,2.0,93,0.00,,,0.01,meteohub,2013-02-05 03:57:00,
2013-02-04 20:02:00,46.4,44.4,30.04,WSW,246,2.0,2.0,93,0.00,,,0.01,meteohub,2013-02-05 04:02:00,
2013-02-04 20:07:00,46.2,44.2,30.04,NNW,332,0.0,4.0,93,0.00,,,0.01,meteohub,2013-02-05 04:07:00,
2013-02-04 20:13:00,46.2,44.2,30.04,WSW,238,0.0,3.0,93,0.00,,,0.01,meteohub,2013-02-05 04:13:00,
2013-02-04 20:18:00,46.2,44.2,30.04,West,277,1.0,3.0,93,0.00,,,0.01,meteohub,2013-02-05 04:18:00,
2013-02-04 20:23:00,46.2,44.2,30.04,West,259,3.0,3.0,93,0.00,,,0.01,meteohub,2013-02-05 04:23:00,
2013-02-04 20:28:00,46.0,44.1,30.04,WSW,246,0.0,3.0,93,0.00,,,0.01,meteohub,2013-02-05 04:28:00,
2013-02-04 20:33:00,46.0,44.4,30.04,SW,219,3.0,3.0,94,0.00,,,0.01,meteohub,2013-02-05 04:33:00,
2013-02-04 20:38:00,45.9,44.2,30.04,SW,221,1.0,2.0,94,0.00,,,0.01,meteohub,2013-02-05 04:38:00,
2013-02-04 20:43:00,45.9,44.2,30.04,WSW,246,4.0,4.0,94,0.00,,,0.01,meteohub,2013-02-05 04:43:00,
2013-02-04 20:48:00,45.7,44.1,30.04,WSW,246,1.0,1.0,94,0.00,,,0.01,meteohub,2013-02-05 04:48:00,
2013-02-04 20:53:00,45.7,44.1,30.05,WNW,283,1.0,3.0,94,0.00,,,0.01,meteohub,2013-02-05 04:53:00,
2013-02-04 20:58:00,45.5,43.9,30.05,West,276,1.0,3.0,94,0.00,,,0.01,meteohub,2013-02-05 04:58:00,
2013-02-04 21:00:00,45.5,43.9,30.05,West,275,1.0,3.0,94,0.00,,,0.01,meteohub,2013-02-05 05:00:00,
2013-02-04 21:01:00,45.5,43.9,30.05,West,275,0.0,3.0,94,0.00,,,0.01,meteohub,2013-02-05 05:01:00,
2013-02-04 21:04:00,45.7,44.1,30.05,West,276,0.0,2.0,94,0.00,,,0.01,meteohub,2013-02-05 05:04:00,
2013-02-04 21:06:00,45.7,44.1,30.05,West,276,0.0,2.0,94,0.00,,,0.01,meteohub,2013-02-05 05:06:00,
2013-02-04 21:11:00,45.7,44.1,30.05,West,279,1.0,2.0,94,0.00,,,0.01,meteohub,2013-02-05 05:11:00,
2013-02-04 21:16:00,45.7,44.1,30.05,West,277,0.0,1.0,94,0.00,,,0.01,meteohub,2013-02-05 05:16:00,
2013-02-04 21:21:00,45.5,43.9,30.05,West,279,0.0,2.0,94,0.00,,,0.01,meteohub,2013-02-05 05:21:00,
2013-02-04 21:26:00,45.7,44.1,30.05,West,277,0.0,2.0,94,0.00,,,0.01,meteohub,2013-02-05 05:26:00,
2013-02-04 21:31:00,45.7,44.4,30.05,West,277,0.0,2.0,95,0.00,,,0.01,meteohub,2013-02-05 05:31:00,
2013-02-04 21:36:00,45.7,44.1,30.05,WSW,252,1.0,2.0,94,0.00,,,0.01,meteohub,2013-02-05 05:36:00,
2013-02-04 21:41:00,45.5,43.9,30.05,WSW,250,0.0,3.0,94,0.00,,,0.01,meteohub,2013-02-05 05:41:00,
2013-02-04 21:46:00,45.5,43.9,30.05,SSW,206,0.0,3.0,94,0.00,,,0.01,meteohub,2013-02-05 05:46:00,
2013-02-04 21:51:00,45.5,43.9,30.06,ENE,65,0.0,3.0,94,0.00,,,0.01,meteohub,2013-02-05 05:51:00,
2013-02-04 21:56:00,45.5,43.9,30.06,East,84,0.0,3.0,94,0.00,,,0.01,meteohub,2013-02-05 05:56:00,
2013-02-04 22:01:00,45.5,43.9,30.06,SW,223,1.0,2.0,94,0.00,,,0.01,meteohub,2013-02-05 06:01:00,
2013-02-04 22:06:00,45.7,44.1,30.06,SSW,210,1.0,2.0,94,0.00,,,0.01,meteohub,2013-02-05 06:06:00,
2013-02-04 22:11:00,45.7,44.1,30.06,WNW,284,2.0,2.0,94,0.00,,,0.01,meteohub,2013-02-05 06:11:00,
2013-02-04 22:16:00,45.7,44.1,30.06,WNW,284,1.0,2.0,94,0.00,,,0.01,meteohub,2013-02-05 06:16:00,
2013-02-04 22:22:00,45.7,43.7,30.06,NW,314,0.0,3.0,93,0.00,,,0.01,meteohub,2013-02-05 06:22:00,
2013-02-04 22:27:00,45.7,43.7,30.06,NW,315,1.0,3.0,93,0.00,,,0.01,meteohub,2013-02-05 06:27:00,
2013-02-04 22:32:00,45.7,43.7,30.06,WNW,288,1.0,3.0,93,0.00,,,0.01,meteohub,2013-02-05 06:32:00,
2013-02-04 22:37:00,45.7,43.7,30.05,West,260,1.0,3.0,93,0.00,,,0.01,meteohub,2013-02-05 06:37:00,
2013-02-04 22:42:00,45.7,43.7,30.05,WNW,294,2.0,2.0,93,0.00,,,0.01,meteohub,2013-02-05 06:42:00,
2013-02-04 22:47:00,45.5,43.5,30.05,SW,228,0.0,3.0,93,0.00,,,0.01,meteohub,2013-02-05 06:47:00,
2013-02-04 22:52:00,45.5,43.5,30.05,WSW,242,2.0,3.0,93,0.00,,,0.01,meteohub,2013-02-05 06:52:00,
2013-02-04 22:57:00,45.3,43.3,30.05,South,184,0.0,3.0,93,0.00,,,0.01,meteohub,2013-02-05 06:57:00,
2013-02-04 23:02:00,45.5,43.5,30.05,SW,221,0.0,2.0,93,0.00,,,0.01,meteohub,2013-02-05 07:02:00,
2013-02-04 23:07:00,45.3,43.3,30.06,West,269,1.0,3.0,93,0.00,,,0.01,meteohub,2013-02-05 07:07:00,
2013-02-04 23:12:00,45.3,43.3,30.06,WSW,246,2.0,3.0,93,0.00,,,0.01,meteohub,2013-02-05 07:12:00,
2013-02-04 23:17:00,45.3,43.3,30.06,West,261,0.0,2.0,93,0.00,,,0.01,meteohub,2013-02-05 07:17:00,
2013-02-04 23:22:00,45.3,43.3,30.05,East,83,2.0,2.0,93,0.00,,,0.01,meteohub,2013-02-05 07:22:00,
2013-02-04 23:28:00,45.1,43.2,30.05,ENE,72,2.0,3.0,93,0.00,,,0.01,meteohub,2013-02-05 07:28:00,
2013-02-04 23:33:00,45.1,43.2,30.05,ENE,72,1.0,2.0,93,0.00,,,0.01,meteohub,2013-02-05 07:33:00,
2013-02-04 23:38:00,45.1,43.5,30.05,ENE,73,1.0,3.0,94,0.00,,,0.01,meteohub,2013-02-05 07:38:00,
2013-02-04 23:43:00,45.1,43.5,30.05,West,263,2.0,3.0,94,0.00,,,0.01,meteohub,2013-02-05 07:43:00,
2013-02-04 23:48:00,45.1,43.5,30.05,SW,214,1.0,3.0,94,0.00,,,0.01,meteohub,2013-02-05 07:48:00,
2013-02-04 23:53:00,45.0,43.3,30.05,East,92,2.0,2.0,94,0.00,,,0.01,meteohub,2013-02-05 07:53:00,
2013-02-04 23:58:00,45.0,43.3,30.05,East,91,1.0,2.0,94,0.00,,,0.01,meteohub,2013-02-05 07:58:00,